CW3846 Weather Reports


Display with metric or nautical units.
time (UTC)temp
F
wind
direction
speed
MPH
gust
MPH
rain 1hr
in
rain 24hr
in
rain mn
in
humidity
%
barometer
mb
20260504034600 83 0 0.0 1.0 0.00 0.00 0.00 15 1009.2
20260504034030 83 0 0.0 1.0 0.00 0.00 0.00 14 1009.2
20260504033531 83 0 0.0 1.0 0.00 0.00 0.00 14 1009.1
20260504033044 83 0 0.0 0.0 0.00 0.00 0.00 14 1008.9
20260504032532 83 0 0.0 1.0 0.00 0.00 0.00 14 1008.9
20260504032032 83 0 0.0 1.0 0.00 0.00 0.00 14 1008.6
20260504031546 84 0 0.0 1.0 0.00 0.00 0.00 14 1008.5
20260504031032 84 0 0.0 2.0 0.00 0.00 0.00 13 1008.5
20260504030532 84 0 0.0 3.0 0.00 0.00 0.00 13 1008.3
20260504025530 85 0 0.0 3.0 0.00 0.00 0.00 12 1008.0
20260504025030 85 0 0.0 4.0 0.00 0.00 0.00 12 1007.9
20260504024540 85 0 0.0 4.0 0.00 0.00 0.00 11 1007.8
20260504024030 85 0 0.0 4.0 0.00 0.00 0.00 11 1007.5
20260504023529 86 0 0.0 3.0 0.00 0.00 0.00 11 1007.4
20260504023040 86 0 0.0 3.0 0.00 0.00 0.00 11 1007.4
20260504022530 86 0 0.0 3.0 0.00 0.00 0.00 10 1007.2
20260504022030 87 0 0.0 1.0 0.00 0.00 0.00 10 1007.1
20260504021550 87 251 0.0 3.0 0.00 0.00 0.00 10 1007.1
20260504021028 87 0 0.0 6.0 0.00 0.00 0.00 10 1007.1
20260504020528 88 0 0.0 6.0 0.00 0.00 0.00 10 1006.9
20260504020045 88 0 0.0 3.0 0.00 0.00 0.00 9 1007.1
20260504015529 88 0 0.0 3.0 0.00 0.00 0.00 9 1007.1
20260504015030 88 0 0.0 4.0 0.00 0.00 0.00 9 1006.8
20260504014544 89 0 0.0 4.0 0.00 0.00 0.00 9 1006.7
20260504014030 89 0 0.0 4.0 0.00 0.00 0.00 9 1006.7
20260504013530 89 0 0.0 2.0 0.00 0.00 0.00 8 1006.8
20260504013050 90 0 0.0 2.0 0.00 0.00 0.00 8 1006.7
20260504012533 90 0 0.0 2.0 0.00 0.00 0.00 8 1006.6
20260504012030 90 0 0.0 3.0 0.00 0.00 0.00 9 1006.5
20260504011541 90 0 0.0 4.0 0.00 0.00 0.00 9 1006.5
20260504011029 91 0 0.0 8.0 0.00 0.00 0.00 10 1006.5
20260504010528 91 0 0.0 8.0 0.00 0.00 0.00 10 1006.6
20260504010047 91 0 0.0 5.0 0.00 0.00 0.00 9 1006.6
20260504005529 92 234 0.0 7.0 0.00 0.00 0.00 10 1006.6
20260504005029 92 0 0.0 7.0 0.00 0.00 0.00 10 1006.6
20260504004544 92 0 0.0 4.0 0.00 0.00 0.00 10 1006.5
20260504004028 93 0 0.0 4.0 0.00 0.00 0.00 10 1006.6
20260504003529 93 0 0.0 4.0 0.00 0.00 0.00 9 1006.6
20260504003044 93 0 0.0 4.0 0.00 0.00 0.00 9 1006.7
20260504002530 94 0 0.0 4.0 0.00 0.00 0.00 9 1006.6
20260504002031 94 311 0.0 2.0 0.00 0.00 0.00 9 1006.6
20260504001558 94 0 0.0 3.0 0.00 0.00 0.00 9 1006.6
20260504001027 94 0 0.0 6.0 0.00 0.00 0.00 9 1006.6
20260504000533 94 320 0.0 6.0 0.00 0.00 0.00 8 1006.5
20260504000057 95 0 0.0 3.0 0.00 0.00 0.00 8 1006.5
20260503235541 95 0 0.0 3.0 0.00 0.00 0.00 8 1006.6
20260503235031 95 0 0.0 5.0 0.00 0.00 0.00 8 1006.5
20260503234547 96 0 0.0 5.0 0.00 0.00 0.00 8 1006.5
20260503234029 96 0 0.0 5.0 0.00 0.00 0.00 8 1006.6
20260503233530 96 0 0.0 5.0 0.00 0.00 0.00 7 1006.5
20260503233046 97 0 0.0 5.0 0.00 0.00 0.00 8 1006.4
20260503232530 97 0 0.0 4.0 0.00 0.00 0.00 7 1006.4
20260503232030 97 0 0.0 4.0 0.00 0.00 0.00 7 1006.4
20260503231552 97 0 0.0 2.0 0.00 0.00 0.00 8 1006.4
20260503231032 97 0 0.0 5.0 0.00 0.00 0.00 7 1006.4
20260503230531 97 0 0.0 5.0 0.00 0.00 0.00 8 1006.4
20260503230045 98 0 0.0 3.0 0.00 0.00 0.00 8 1006.5
20260503225528 98 0 0.0 6.0 0.00 0.00 0.00 7 1006.7
20260503225031 98 0 0.0 6.0 0.00 0.00 0.00 7 1006.8
20260503224541 98 180 0.0 7.0 0.00 0.00 0.00 8 1006.6
20260503224032 98 0 0.0 7.0 0.00 0.00 0.00 7 1006.7
20260503223530 99 0 0.0 7.0 0.00 0.00 0.00 7 1006.8
20260503223040 99 0 0.0 2.0 0.00 0.00 0.00 7 1006.8
20260503222528 99 199 0.0 2.0 0.00 0.00 0.00 7 1006.9
20260503222030 99 0 0.0 2.0 0.00 0.00 0.00 7 1006.9
20260503221547 99 0 0.0 2.0 0.00 0.00 0.00 7 1007.1
20260503221029 99 0 0.0 2.0 0.00 0.00 0.00 7 1007.2
20260503220531 99 0 0.0 2.0 0.00 0.00 0.00 7 1007.2
20260503220046 99 0 0.0 2.0 0.00 0.00 0.00 7 1007.2
20260503215529 99 0 0.0 1.0 0.00 0.00 0.00 7 1007.3
20260503215028 99 0 0.0 1.0 0.00 0.00 0.00 7 1007.3
20260503214543 99 0 0.0 2.0 0.00 0.00 0.00 7 1007.4
20260503214030 99 0 0.0 2.0 0.00 0.00 0.00 7 1007.5
20260503213533 98 234 0.0 2.0 0.00 0.00 0.00 7 1007.6
20260503213046 98 0 0.0 1.0 0.00 0.00 0.00 7 1007.6
20260503212530 98 0 0.0 2.0 0.00 0.00 0.00 7 1007.9
20260503212030 98 0 0.0 2.0 0.00 0.00 0.00 7 1008.0
20260503211548 98 0 0.0 2.0 0.00 0.00 0.00 7 1008.0
20260503211032 97 0 0.0 3.0 0.00 0.00 0.00 8 1008.1
20260503210532 97 0 0.0 3.0 0.00 0.00 0.00 8 1008.0
20260503210047 97 0 0.0 3.0 0.00 0.00 0.00 8 1008.3
20260503205529 98 0 0.0 2.0 0.00 0.00 0.00 7 1008.4
20260503205029 98 0 0.0 2.0 0.00 0.00 0.00 7 1008.5
20260503204554 98 0 0.0 1.0 0.00 0.00 0.00 7 1008.5
20260503204031 98 0 0.0 2.0 0.00 0.00 0.00 7 1008.5
20260503203528 97 0 0.0 2.0 0.00 0.00 0.00 8 1008.8
20260503203049 97 0 0.0 1.0 0.00 0.00 0.00 7 1008.7
20260503202528 97 0 0.0 1.0 0.00 0.00 0.00 8 1008.7
20260503202029 97 0 0.0 1.0 0.00 0.00 0.00 7 1008.9
20260503201541 97 0 0.0 1.0 0.00 0.00 0.00 8 1008.9
20260503201032 97 0 0.0 1.0 0.00 0.00 0.00 8 1008.9
20260503200534 97 0 0.0 1.0 0.00 0.00 0.00 8 1009.1
20260503200041 97 0 0.0 1.0 0.00 0.00 0.00 8 1009.1
20260503195533 96 0 0.0 1.0 0.00 0.00 0.00 8 1009.1
20260503195031 96 195 0.0 1.0 0.00 0.00 0.00 8 1009.2
20260503194548 95 0 0.0 0.0 0.00 0.00 0.00 9 1009.3
20260503194031 95 0 0.0 0.0 0.00 0.00 0.00 8 1009.5
20260503193531 95 0 0.0 3.0 0.00 0.00 0.00 9 1009.5
20260503193100 94 0 0.0 3.0 0.00 0.00 0.00 9 1009.5
20260503192531 94 160 0.0 2.0 0.00 0.00 0.00 9 1009.5
20260503192031 94 0 0.0 0.0 0.00 0.00 0.00 9 1009.7
20260503191550 94 0 0.0 0.0 0.00 0.00 0.00 9 1009.8
20260503191032 94 0 0.0 0.0 0.00 0.00 0.00 9 1010.0
20260503190530 94 0 0.0 0.0 0.00 0.00 0.00 9 1010.1
20260503190058 93 0 0.0 0.0 0.00 0.00 0.00 10 1010.1
20260503185530 93 0 0.0 1.0 0.00 0.00 0.00 9 1010.1
20260503185032 93 0 0.0 1.0 0.00 0.00 0.00 9 1010.2
20260503184548 93 0 0.0 1.0 0.00 0.00 0.00 9 1010.4
20260503184032 92 0 0.0 0.0 0.00 0.00 0.00 10 1010.3
20260503183531 92 0 0.0 0.0 0.00 0.00 0.00 9 1010.5
20260503183058 92 0 0.0 0.0 0.00 0.00 0.00 9 1010.7
20260503182532 91 0 0.0 1.0 0.00 0.00 0.00 10 1010.5
20260503182031 91 0 0.0 1.0 0.00 0.00 0.00 10 1010.7
20260503181545 91 0 0.0 1.0 0.00 0.00 0.00 9 1010.7
20260503181034 90 0 0.0 0.0 0.00 0.00 0.00 10 1010.9
20260503180532 89 0 0.0 1.0 0.00 0.00 0.00 10 1010.9
20260503180053 89 0 0.0 1.0 0.00 0.00 0.00 11 1011.1
20260503175533 89 0 0.0 1.0 0.00 0.00 0.00 10 1011.2
20260503175032 89 0 0.0 0.0 0.00 0.00 0.00 11 1011.2
20260503174543 89 0 0.0 0.0 0.00 0.00 0.00 11 1011.3
20260503174032 88 0 0.0 1.0 0.00 0.00 0.00 12 1011.2
20260503173533 88 0 0.0 1.0 0.00 0.00 0.00 12 1011.3
20260503173108 88 0 0.0 0.0 0.00 0.00 0.00 11 1011.3
20260503172532 88 0 0.0 0.0 0.00 0.00 0.00 11 1011.4
20260503172031 88 0 0.0 0.0 0.00 0.00 0.00 11 1011.4
20260503171550 88 0 0.0 0.0 0.00 0.00 0.00 11 1011.4
20260503171031 88 0 0.0 1.0 0.00 0.00 0.00 11 1011.4
20260503170531 87 0 0.0 1.0 0.00 0.00 0.00 11 1011.5
20260503150530 77 0 0.0 0.0 0.00 0.00 0.00 23 1011.1
20260503131029 78 0 0.0 1.0 0.00 0.00 0.00 21 1010.0
20260503130531 78 0 0.0 0.0 0.00 0.00 0.00 21 1009.9
20260503110530 78 0 0.0 0.0 0.00 0.00 0.00 21 1009.6
20260503081548 79 0 0.0 0.0 0.00 0.00 0.00 14 1010.2
20260503081032 79 0 0.0 0.0 0.00 0.00 0.00 14 1010.3
20260503080532 80 0 0.0 0.0 0.00 0.00 0.00 14 1010.3
20260503072530 82 0 0.0 0.0 0.00 0.00 0.00 13 1010.6
20260503072034 82 0 0.0 0.0 0.00 0.00 0.00 13 1010.7
20260503071550 82 0 0.0 0.0 0.00 0.00 0.00 13 1010.8
20260503071032 81 0 0.0 0.0 0.00 0.00 0.00 13 1010.9
20260503070532 81 0 0.0 0.0 0.00 0.00 0.00 13 1010.7
20260503055033 80 0 0.0 0.0 0.00 0.00 0.00 15 1010.0
20260503054546 80 0 0.0 0.0 0.00 0.00 0.00 15 1010.0
20260503054032 80 0 0.0 0.0 0.00 0.00 0.00 15 1010.1
20260503053531 80 0 0.0 0.0 0.00 0.00 0.00 15 1010.2
20260503053047 81 0 0.0 0.0 0.00 0.00 0.00 15 1010.2
20260503052531 81 0 0.0 0.0 0.00 0.00 0.00 14 1010.1
20260503052031 82 0 0.0 0.0 0.00 0.00 0.00 15 1010.1
20260503051550 82 0 0.0 0.0 0.00 0.00 0.00 15 1010.0
20260503051030 82 0 0.0 0.0 0.00 0.00 0.00 17 1010.1
20260503050530 83 0 0.0 0.0 0.00 0.00 0.00 14 1010.0
20260503050043 83 0 0.0 0.0 0.00 0.00 0.00 13 1010.1
20260503045534 83 0 0.0 0.0 0.00 0.00 0.00 12 1010.1
20260503045031 83 0 0.0 0.0 0.00 0.00 0.00 12 1010.1
20260503044541 83 0 0.0 0.0 0.00 0.00 0.00 12 1010.1
20260503044030 83 0 0.0 0.0 0.00 0.00 0.00 12 1009.9
20260503043531 83 0 0.0 0.0 0.00 0.00 0.00 12 1009.8
20260503043042 84 0 0.0 0.0 0.00 0.00 0.00 12 1009.9
20260503042531 84 0 0.0 0.0 0.00 0.00 0.00 12 1009.8
20260503042031 84 0 0.0 0.0 0.00 0.00 0.00 12 1009.8
20260503041545 84 0 0.0 0.0 0.00 0.00 0.00 11 1009.7
20260503041032 85 0 0.0 0.0 0.00 0.00 0.00 11 1009.7
20260503040535 85 0 0.0 0.0 0.00 0.00 0.00 11 1009.5
20260503040045 85 0 0.0 0.0 0.00 0.00 0.00 11 1009.5
20260503035531 85 0 0.0 0.0 0.00 0.00 0.00 10 1009.5
20260503035031 86 0 0.0 0.0 0.00 0.00 0.00 10 1009.3